Regional Weather Roundup
Issued by NWS

Home | Current Version | Previous Version | Text Only | Print | Product List | Glossary On
Versions: 1 2 3 4 5 6 7 8 9 10 11 12 13 14 15 16 17 18 19 20 21 22 23 24 25 26 27 28 29 30 31 32 33 34 35 36 37 38 39 40 41 42 43 44 45 46 47 48 49 50
000
ASUS42 KFFC 031303
RWRGA
WEATHER ROUNDUP FOR GEORGIA
NATIONAL WEATHER SERVICE PEACHTREE CITY GA
900 AM EDT SUN MAY 03 2015

NOTE: "FAIR" INDICATES FEW OR NO CLOUDS BELOW 12,000 FEET WITH NO
SIGNIFICANT WEATHER AND/OR OBSTRUCTIONS TO VISIBILITY.

* = USE WITH CAUTION. THE STATIONS MARKED WITH AN ASTERISK MAY NOT
REPORT WEATHER SUCH AS PRECIPITATION, FOG, OR THUNDER AND ARE NOT
QUALITY CONTROLLED BY NWS.

THE REMARK "TC" DENOTES TEMPERATURE READING IN DEGREES CELSIUS.

GAZ001>058-031400-
NORTH GEORGIA

CITY           SKY/WX    TMP DP  RH WIND       PRES   REMARKS
ATLANTA        SUNNY     66  51  58 W3        30.17R
ATHENS         SUNNY     62  52  69 CALM      30.18R
CHAMBLEE       SUNNY     62  53  72 CALM      30.17R
PEACHTREE CITY SUNNY     58  54  86 CALM      30.18R
ROME           SUNNY     55  51  86 CALM      30.17R
WEST ATLANTA   SUNNY     59  52  77 CALM      30.17R
GAINESVILLE    SUNNY     62  48  60 N5        30.20R
CARTERSVILLE   SUNNY     57  51  80 CALM      30.18R


CITY           SKY/WX    TMP DP  RH WIND       PRES   REMARKS
DALTON*        SUNNY     54  52  94 CALM      30.18R
LAWRENCEVILLE* SUNNY     61  48  63 CALM      30.17R
MARIETTA       SUNNY     61  53  76 CALM      30.17R
KENNESAW*      SUNNY     57  50  77 CALM      30.19
BLAIRSVILLE*     N/A     51  40  65 CALM      30.21R
$$

GAZ059>098-102>109-031400-
CENTRAL GEORGIA

CITY           SKY/WX    TMP DP  RH WIND       PRES   REMARKS
AUGUSTA-BUSH   SUNNY     60  54  80 CALM      30.18R
AUGUSTA-DANIEL SUNNY     64  51  62 S3        30.18R
COLUMBUS       SUNNY     61  52  72 CALM      30.16R
MACON          SUNNY     61  56  83 CALM      30.17R
ROBINS AFB     SUNNY     61  57  86 CALM      30.17R


CITY           SKY/WX    TMP DP  RH WIND       PRES   REMARKS
LAGRANGE*      SUNNY     62  57  83 CALM      30.17R
SYLVANIA*      SUNNY     64  56  75 W5        30.19R
MILLEDGEVILLE* SUNNY     61  59  94 CALM      30.18R
$$

GAZ099>101-110>166-031400-
SOUTH GEORGIA

CITY           SKY/WX    TMP DP  RH WIND       PRES   REMARKS
SAVANNAH       SUNNY     65  53  65 W3        30.18R
VALDOSTA       SUNNY     67  57  70 S6        30.18R
ALMA           SUNNY     65  53  65 S5        30.18R
ST SIMONS      SUNNY     68  58  70 W5        30.17R
FT STEWART     SUNNY     67  53  61 SW6       30.16R
ALBANY         SUNNY     64  56  75 CALM      30.19R
HUNTER AFB     SUNNY     64  57  77 W3        30.16R
MOODY AFB      SUNNY     66  55  68 S2        30.17R
BRUNSWICK      SUNNY     64  57  77 CALM      30.19R


CITY           SKY/WX    TMP DP  RH WIND       PRES   REMARKS
BAINBRIDGE*    SUNNY     64  59  82 E5        30.17R
MOULTRIE*      SUNNY     63  55  77 CALM      30.18R
VIDALIA*       SUNNY     64  55  72 SW6       30.19R
WAYCROSS*      SUNNY     69  56  64 SW3       30.18R
DOUGLAS*       SUNNY     64  55  72 SW7       30.19R
$$


USA.gov is the U.S. government's official web portal to all federal, state and local government web resources and services.